Home > Weather > Krefeld > Past weeks

Flag for Germany Past Weather in Krefeld, North Rhine-Westphalia, Germany — Yesterday and Last 2 Weeks

Now
64 °F

Partly sunny.


Feels Like: 64 °F
Forecast: 58 / 67 °F
Wind: 12 mph from North

Location: Monchengladbach Airport

Current Time: Jun 29, 2016 at 1:09:36 PM

Latest Report: Jun 29, 2016 at 12:20 PM


Visibility: N/A

Pressure: 29.92 "Hg

Humidity: 68%

Dew Point: 54 °F

Location of KrefeldLocation

Past Weather in Krefeld — Graph

°F

Krefeld Temperature Yesterday

Maximum temperature yesterday: 73 °F (at 4:20 PM)
Minimum temperature yesterday: 59 °F (at 7:50 AM)
Average temperature yesterday: 68 °F

High & Low Weather Summary for the Past Weeks

 TemperatureHumidityPressure
High91 °F (Jun 23, 4:50 PM)100% (Jun 18, 7:50 AM)30.27 "Hg (Jun 18, 7:50 AM)
Low54 °F (Jun 20, 7:50 AM)46% (Jun 19, 4:50 PM)29.47 "Hg (Jun 14, 3:20 PM)
Average66 °F74%29.94 "Hg
* Reported Jun 14 11:20 AM — Jun 29 11:50 AM, Krefeld, Weather by CustomWeather, © 2016

Note: Actual official high and low records may vary slightly from our data, if they occured in-between our weather recording intervals... More about our weather records

Advertising

Krefeld Weather History for the Previous 24 Hours

Scroll right to see more
 ConditionsComfort  
Time TempWeatherWind HumidityBarometerVisibility
11:50 AM
Wed, Jun 29
64 °FPartly sunny.13 mph68%29.92 "HgN/A
11:20 AM63 °FPartly sunny.10 mph68%29.92 "HgN/A
10:50 AM61 °FPartly sunny.12 mph72%29.92 "HgN/A
10:20 AM61 °FPartly sunny.12 mph72%29.92 "HgN/A
9:50 AM61 °FPartly sunny.10 mph72%29.92 "HgN/A
9:20 AM59 °FPartly sunny.8 mph77%29.89 "HgN/A
8:50 AM59 °FBroken clouds.9 mph77%29.89 "HgN/A
8:20 AM59 °FScattered clouds.7 mph82%29.89 "HgN/A
7:50 AM57 °FPartly sunny.8 mph88%29.89 "HgN/A
7:20 AM57 °FPartly sunny.7 mph88%29.89 "HgN/A
8:20 PM
Tue, Jun 28
68 °FPassing clouds.5 mph60%29.92 "HgN/A
7:50 PM70 °FPassing clouds.7 mph53%29.92 "HgN/A
7:20 PM70 °FPassing clouds.8 mph53%29.92 "HgN/A
6:50 PM72 °FClear.6 mph53%29.92 "Hg10 mi
6:20 PM72 °FPassing clouds.6 mph50%29.92 "HgN/A
5:50 PM72 °FClear.6 mph50%29.95 "Hg10 mi
5:20 PM72 °FPassing clouds.5 mph53%29.95 "HgN/A
4:50 PM73 °FPassing clouds.5 mph47%29.98 "HgN/A
4:20 PM73 °FPassing clouds.6 mph50%29.98 "HgN/A
3:50 PM72 °FPassing clouds.6 mph53%29.98 "HgN/A
3:20 PM72 °FPassing clouds.6 mph53%29.98 "HgN/A
2:50 PM70 °FPassing clouds.3 mph57%30.01 "HgN/A
2:20 PM70 °FPassing clouds.6 mph60%30.01 "HgN/A
1:50 PM70 °FScattered clouds.5 mph60%30.01 "HgN/A
1:20 PM68 °FScattered clouds.5 mph64%30.01 "HgN/A
Weather by CustomWeather, © 2016

See weather overviewHow to use our weather pages